+ View the NASA Portal
+ Center for Near-Earth Object Studies
IMPORTANT:
The SSD Announcement email list is now available. Major changes are coming in the near future, including possible hostname and/or URL changes. To be notified of such changes, subscribe to this email list.
Please visit
this page
for more details.
Don't show this message again
JPL Small-Body Database Browser
Search:
[
help
]
379889 (2012 HV67)
Classification:
Main-belt Asteroid
SPK-ID:
2379889
[
Ephemeris
|
Orbit Diagram
|
Orbital Elements
|
Mission Design
|
Physical Parameters
|
Discovery Circumstances
|
Close-Approach Data
]
[ show orbit diagram ]
Orbital Elements at Epoch 2458600.5 (2019-Apr-27.0) TDB
Reference:
JPL 13
(heliocentric ecliptic J2000)
Element
Value
Uncertainty (1-sigma)
Units
e
.09759776252397996
5.3449e-08
a
2.590351702382273
3.3012e-08
au
q
2.337539172079581
1.4078e-07
au
i
7.651677319184452
5.3287e-06
deg
node
90.05480826804845
5.5028e-05
deg
peri
223.8920045828691
6.5816e-05
deg
M
176.3127597126203
3.6007e-05
deg
t
p
2457854.707914381319
(2017-Apr-11.20791438)
0.00015458
TDB
period
1522.777768667115
4.17
2.911e-05
7.97e-08
d
yr
n
.2364100707321906
4.5193e-09
deg/d
Q
2.843164232684965
3.6234e-08
au
Orbit Determination Parameters
# obs. used (total)
121
data-arc span
9149 days (25.05 yr)
first obs. used
1994-01-17
last obs. used
2019-02-04
planetary ephem.
DE431
SB-pert. ephem.
SB431-N16
condition code
0
norm. resid. RMS
.60283
source
ORB
producer
Otto Matic
solution date
2019-Jul-14 14:41:40
Additional Information
Earth MOID
= 1.32916 au
Jupiter MOID
= 2.37304 au
T_jup
= 3.401
[ show covariance matrix ]
[
Ephemeris
|
Orbit Diagram
|
Orbital Elements
|
Mission Design
|
Physical Parameters
|
Discovery Circumstances
|
Close-Approach Data
]
Physical Parameter Table
Parameter
Symbol
Value
Units
Sigma
Reference
Notes
absolute magnitude
H
16.9
n/a
MPO427888
379889 (2012 HV67)
Discovered 2005-Nov-03 by Mt. Lemmon Survey at Mount Lemmon
Reference:
Last Updated:
2013-11-20
[ show close-approach data ]
[
Ephemeris
|
Orbit Diagram
|
Orbital Elements
|
Mission Design
|
Physical Parameters
|
Discovery Circumstances
|
Close-Approach Data
]
2019-Dec-07 04:51 UT
(server date/time)
Site Manager:
Ryan S. Park
Webmaster
:
Alan B. Chamberlin